Weather History for PAJN - May, 2013

Change the Weather History Date:

Saturday, May 11, 2013

  Actual Average Record
Temperature  
Mean Temperature 48 °F 47 °F  
Max Temperature 50 °F 55 °F 68 °F (1970)
Min Temperature 45 °F 39 °F 25 °F (1965)
Degree Days  
Heating Degree Days 17 18  
Month to date heating degree days 214 209  
Since 1 July heating degree days 8231 7737  
Cooling Degree Days 0 0  
Month to date cooling degree days 0 0  
Year to date cooling degree days 0 0  
Moisture  
Dew Point 44 °F    
Average Humidity 80    
Maximum Humidity 93    
Minimum Humidity 66    
Precipitation  
Precipitation 0.13 in 0.10 in 1.13 in (1997)
Month to date precipitation 2.65 1.14  
Year to date precipitation 25.69 17.34  
Sea Level Pressure  
Sea Level Pressure 29.79 in    
Wind  
Wind Speed 3 mph (ESE)    
Max Wind Speed 14 mph    
Max Gust Speed 17 mph    
Visibility 7 miles    
Events Rain    
T = Trace of Precipitation, MM = Missing Value Source: NWS Daily Summary

Daily Weather History Graph

Daily Weather History Graph

Search for Another Location

Airport or City:

Trip Planner

Search our weather history database for the weather conditions in past years. The results will help you decide how hot, cold, wet, or windy it might be!

Date:

Astronomy

May. 11, 2013 Rise Set
Actual Time 4:39 AM AKDT 9:11 PM AKDT
Civil Twilight 3:44 AM AKDT 10:06 PM AKDT
Nautical Twilight 2:12 AM AKDT 11:42 PM AKDT
Astronomical Twilight Sun does not set Sun does not set
Moon 5:45 AM AKDT (5/11) 11:06 PM AKDT (5/11)
Length of Visible Light 18h 21m
Length of Day
16h 31m
Waxing Crescent, 3% of the Moon is Illuminated
May 11
Waxing Crescent
May 17
First Quarter
May 24
Full
May 31
Last Quarter
Jun 8
New

Hourly Weather History & Observations

Time (AKDT) Temp. Windchill Dew Point Humidity Pressure Visibility Wind Dir Wind Speed Gust Speed Precip Events Conditions
12:53 AM 50.0 °F - 39.9 °F 68% 30.01 in 10.0 mi Calm Calm - N/A   Overcast
1:53 AM 46.9 °F - 39.0 °F 74% 29.98 in 10.0 mi Calm Calm - N/A   Mostly Cloudy
2:53 AM 46.9 °F - 37.9 °F 71% 29.96 in 10.0 mi ESE 3.5 mph - N/A   Mostly Cloudy
3:53 AM 46.0 °F 44.8 °F 39.9 °F 79% 29.92 in 10.0 mi East 3.5 mph - N/A   Mostly Cloudy
4:53 AM 46.0 °F 44.8 °F 39.9 °F 79% 29.90 in 10.0 mi SSW 3.5 mph - N/A   Overcast
5:53 AM 46.9 °F - 41.0 °F 80% 29.88 in 10.0 mi SE 3.5 mph - 0.00 in Rain Light Rain
6:53 AM 46.9 °F - 41.0 °F 80% 29.87 in 10.0 mi SSE 4.6 mph - 0.00 in Rain Light Rain
7:53 AM 46.0 °F 41.9 °F 42.1 °F 86% 29.88 in 10.0 mi ENE 8.1 mph - 0.00 in Rain Light Rain
8:53 AM 48.0 °F - 42.1 °F 80% 29.86 in 9.0 mi Calm Calm - 0.01 in Rain Light Rain
9:53 AM 46.9 °F - 43.0 °F 86% 29.84 in 10.0 mi Calm Calm - 0.02 in Rain Light Rain
10:53 AM 46.9 °F - 44.1 °F 90% 29.82 in 10.0 mi West 5.8 mph - 0.01 in Rain Light Rain
11:53 AM 46.9 °F - 44.1 °F 90% 29.81 in 8.0 mi WSW 5.8 mph - 0.01 in Rain Light Rain
12:53 PM 46.0 °F 43.1 °F 43.0 °F 89% 29.80 in 9.0 mi WSW 5.8 mph - 0.01 in   Overcast
1:53 PM 46.0 °F 42.5 °F 44.1 °F 93% 29.79 in 8.0 mi WSW 6.9 mph - 0.00 in Rain Light Rain
2:53 PM 46.0 °F - 44.1 °F 93% 29.79 in 8.0 mi Calm Calm - 0.00 in Rain Light Rain
3:53 PM 48.0 °F - 45.0 °F 89% 29.76 in 7.0 mi East 11.5 mph - 0.06 in Rain Light Rain
4:53 PM 48.9 °F - 46.9 °F 93% 29.74 in 5.0 mi East 12.7 mph - 0.06 in Rain Light Rain
5:38 PM 48.9 °F - 46.9 °F 93% 29.73 in 5.0 mi ESE 17.3 mph - 0.04 in Rain Light Rain
5:53 PM 48.9 °F - 46.9 °F 93% 29.73 in 6.0 mi East 16.1 mph - 0.05 in Rain Light Rain
6:53 PM 48.9 °F - 46.9 °F 93% 29.72 in 5.0 mi East 12.7 mph - 0.06 in Rain Light Rain
7:36 PM 48.0 °F - 46.9 °F 96% 29.70 in 4.0 mi East 16.1 mph - 0.03 in Rain Light Rain
7:51 PM 48.2 °F - 46.4 °F 93% 29.69 in 4.0 mi East 10.4 mph - 0.04 in Rain Light Rain
7:53 PM 48.9 °F - 46.9 °F 93% 29.69 in 4.0 mi East 12.7 mph - 0.04 in Rain Light Rain
8:32 PM 48.9 °F - 46.9 °F 93% 29.69 in 7.0 mi East 10.4 mph - 0.03 in Rain Light Rain
8:53 PM 48.9 °F - 46.9 °F 93% 29.70 in 6.0 mi East 9.2 mph - 0.04 in Rain Light Rain
9:36 PM 48.9 °F - 48.0 °F 97% 29.70 in 4.0 mi East 9.2 mph - 0.01 in Rain Light Rain
9:53 PM 48.9 °F - 46.9 °F 93% 29.70 in 5.0 mi East 12.7 mph - 0.01 in   Overcast
10:14 PM 48.9 °F - 46.9 °F 93% 29.70 in 5.0 mi East 13.8 mph - 0.00 in Rain Light Rain
10:53 PM 48.0 °F - 46.9 °F 96% 29.69 in 6.0 mi East 11.5 mph - 0.00 in Rain Light Rain
11:36 PM 48.0 °F - 46.9 °F 96% 29.68 in 6.0 mi East 10.4 mph - 0.00 in Rain Light Rain
11:53 PM 48.9 °F - 46.9 °F 93% 29.68 in 3.0 mi East 9.2 mph - 0.00 in Rain Light Rain